^^
Station Historical Data
Daily Summary for July 6, 2017 Units:  Metric    English   Both
« Previous Day
Next Day »
Daily Weekly Monthly Yearly Custom
  High: Low: Average:
Temperature: 17.8 °C 16.2 °C 17.3 °C
Dew Point: -0.4 °C -1.4 °C -0.7 °C
Humidity: 32% 28% 29%
Wind Speed: 14.3km/h 0km/h 4.7km/h
Wind Gust: 17.7km/h - -
Wind- - North
Pressure: 1021.2 hPa 1020.9 hPa -
Precipitation: 0 mm    
Historical Graphs
 
 
Tabular Data for July 6, 2017
Time Temperature Dew Point Pressure Wind Wind Speed Wind Gust Humidity Rainfall Rate (Hourly) solar Conditions
21:50 17.3 °C -1.4 °C 1020.9 hPa Calm     28% 0 mm 0.0 W/m2
21:58 17.3 °C -1.4 °C 1020.9 hPa Calm     28% 0 mm 0.0 W/m2
22:02 17.6 °C -1.1 °C 1020.9 hPa Calm     28% 0 mm 0.0 W/m2
22:07 17.7 °C -1 °C 1020.9 hPa Calm     28% 0 mm 0.0 W/m2
22:12 17.8 °C -1 °C 1020.9 hPa North 3.2 km/h 17.7 km/h 28% 0 mm 0.0 W/m2
22:17 17.8 °C -1 °C 1021.2 hPa North 14.3 km/h 17.7 km/h 28% 0 mm 0.0 W/m2
22:22 17.8 °C -1 °C 1020.9 hPa North 9.7 km/h 12.9 km/h 28% 0 mm 0.0 W/m2
22:32 17.8 °C -0.5 °C 1020.9 hPa North 9.7 km/h 14.5 km/h 29% 0 mm 0.0 W/m2
22:37 17.7 °C -0.6 °C 1020.9 hPa North 13 km/h 13 km/h 29% 0 mm 0.0 W/m2
22:42 17.7 °C -0.6 °C 1020.9 hPa North 9.7 km/h 14.5 km/h 29% 0 mm 0.0 W/m2
22:47 17.6 °C -0.7 °C 1020.9 hPa North 14.3 km/h 14.5 km/h 29% 0 mm 0.0 W/m2
22:52 17.5 °C -0.7 °C 1020.9 hPa North 7.9 km/h 12.9 km/h 29% 0 mm 0.0 W/m2
22:57 17.4 °C -0.8 °C 1020.9 hPa North 11.1 km/h 12.9 km/h 29% 0 mm 0.0 W/m2
23:02 17.4 °C -0.4 °C 1020.9 hPa North 11.1 km/h 14.5 km/h 30% 0 mm 0.0 W/m2
23:07 17.3 °C -0.4 °C 1020.9 hPa North 3.2 km/h 11.3 km/h 30% 0 mm 0.0 W/m2
23:13 17.3 °C -0.4 °C 1020.9 hPa Calm   11.3 km/h 30% 0 mm 0.0 W/m2
23:18 17.4 °C -0.4 °C 1020.9 hPa Calm     30% 0 mm 0.0 W/m2
23:23 17.4 °C -0.4 °C 1020.9 hPa Calm     30% 0 mm 0.0 W/m2
23:33 17.3 °C -0.4 °C 1020.9 hPa Calm     30% 0 mm 0.0 W/m2
23:38 16.9 °C -0.8 °C 1020.9 hPa Calm     30% 0 mm 0.0 W/m2
23:43 16.4 °C -0.8 °C 1020.9 hPa Calm     31% 0 mm 0.0 W/m2
23:49 16.3 °C -0.9 °C 1020.9 hPa Calm     31% 0 mm 0.0 W/m2
23:54 16.2 °C -0.5 °C 1020.9 hPa Calm     32% 0 mm 0.0 W/m2
Canyon Roadhouse, Fishriver Canyon, Namibia
Compliments of Weather Underground - 1.75 mb